Overview Statistics Trail Chart Weather Telemetry Raw packets
 

This is the latest recevied weather packets stored in our database for station/object OE5RBO. If no packets are shown the sender has not sent any weather packets the latest 10 day(s).

<< 6 7 8 9 10 11 12 >>
Time Temp. Humidity Pressure Rain* Wind** Luminosity Snow
1788531354 30.56° C 44% 1015.9 hPa 0 mm - - -
1788530753 30° C 44% 1016.2 hPa 0 mm - - -
1788530153 30° C 43% 1016.4 hPa 0 mm - - -
1788529552 30.56° C 43% 1016.3 hPa 0 mm - - -
1788528952 29.44° C 45% 1016.4 hPa 0 mm - - -
1788527754 29.44° C 45% 1016.8 hPa 0 mm - - -
1788527151 28.89° C 47% 1017 hPa 0 mm - - -
1788525350 28.89° C 48% 1017.5 hPa 0 mm - - -
1788524749 28.89° C 48% 1017.7 hPa 0 mm - - -
1788524149 28.33° C 48% 1017.9 hPa 0 mm - - -
1788523549 28.33° C 49% 1018.1 hPa 0 mm - - -
1788522949 27.78° C 48% 1018.2 hPa 0 mm - - -
1788521147 28.33° C 50% 1018.5 hPa 0 mm - - -
1788520547 27.22° C 52% 1018.8 hPa 0 mm - - -
1788519346 26.67° C 53% 1018.9 hPa 0 mm - - -
1788518145 26.67° C 53% 1019.2 hPa 0 mm - - -
1788517545 27.22° C 54% 1019.4 hPa 0 mm - - -
1788516945 26.67° C 54% 1019.7 hPa 0 mm - - -
1788516344 27.22° C 55% 1019.8 hPa 0 mm - - -
1788515744 26.67° C 55% 1019.9 hPa 0 mm - - -
1788513943 26.11° C 58% 1020.2 hPa 0 mm - - -
1788513348 25.56° C 60% 1020.5 hPa 0 mm - - -
1788512742 25.56° C 59% 1020.7 hPa 0 mm - - -
1788512142 25° C 61% 1020.7 hPa 0 mm - - -
1788511542 25° C 60% 1020.7 hPa 0 mm - - -

* Rain since midnight (hover to see other rain measurements)
** Current wind speed in m/s (hover to see current wind gust speed)